This is the latest recevied weather packets stored in our database for station/object N7TUG-8. If no packets are shown the sender has not sent any weather packets the latest 10 day(s).
| Time | Temp. | Humidity | Pressure | Rain* | Wind** | Luminosity | Snow |
|---|---|---|---|---|---|---|---|
| 1777938106 | 26.67° C | 51% | 1008.6 hPa | 0 mm | 1.79 m/s, 158° | - | - |
| 1777937317 | 26.67° C | 50% | 1008.5 hPa | 0 mm | 1.79 m/s, 179° | - | - |
| 1777936647 | 26.67° C | 50% | 1008.5 hPa | 0 mm | 1.79 m/s, 148° | - | - |
| 1777936541 | 26.67° C | 50% | 1008.5 hPa | 0 mm | 1.79 m/s, 148° | - | - |
| 1777935862 | 25.56° C | 51% | 1008.7 hPa | 0 mm | 2.24 m/s, 146° | - | - |
| 1777935621 | 25.56° C | 51% | 1008.7 hPa | 0 mm | 2.24 m/s, 146° | - | - |
| 1777934841 | 25.56° C | 51% | 1009 hPa | 0 mm | 2.24 m/s, 140° | - | - |
| 1777934216 | 26.67° C | 51% | 1009 hPa | 0 mm | 1.79 m/s, 158° | - | - |
| 1777934031 | 26.67° C | 51% | 1009.1 hPa | 0 mm | 1.34 m/s, 152° | - | - |
| 1777933416 | 26.67° C | 52% | 1009.3 hPa | 0 mm | 1.34 m/s, 180° | - | - |
| 1777933115 | 26.67° C | 51% | 1009.3 hPa | 0 mm | 1.34 m/s, 160° | - | - |
| 1777932592 | 26.11° C | 53% | 1009.4 hPa | 0 mm | 1.34 m/s, 180° | - | - |
| 1777932266 | 25.56° C | 55% | 1009.4 hPa | 0 mm | 2.24 m/s, 154° | - | - |
| 1777931856 | 25° C | 55% | 1009.5 hPa | 0 mm | 2.24 m/s, 148° | - | - |
| 1777931471 | 25° C | 55% | 1009.5 hPa | 0 mm | 1.79 m/s, 149° | - | - |
| 1777931136 | 25° C | 56% | 1009.5 hPa | 0 mm | 1.79 m/s, 140° | - | - |
| 1777930571 | 24.44° C | 57% | 1009.5 hPa | 0 mm | 2.24 m/s, 140° | - | - |
| 1777930272 | 24.44° C | 58% | 1009.6 hPa | 0 mm | 1.79 m/s, 156° | - | - |
| 1777929735 | 24.44° C | 59% | 1009.8 hPa | 0 mm | 1.79 m/s, 149° | - | - |
| 1777928925 | 23.89° C | 59% | 1009.8 hPa | 0 mm | 2.24 m/s, 151° | - | - |
| 1777928546 | 23.89° C | 60% | 1009.8 hPa | 0 mm | 2.24 m/s, 142° | - | - |
| 1777928065 | 23.89° C | 59% | 1009.8 hPa | 0 mm | 2.24 m/s, 163° | - | - |
| 1777927823 | 23.89° C | 59% | 1009.8 hPa | 0 mm | 2.24 m/s, 163° | - | - |
| 1777927281 | 24.44° C | 59% | 1009.8 hPa | 0 mm | 1.79 m/s, 155° | - | - |
| 1777926451 | 23.89° C | 60% | 1009.8 hPa | 0 mm | 1.79 m/s, 151° | - | - |
* Rain latest hour (hover to see other rain measurements)
** Current wind speed in m/s (hover to see current wind gust speed)